weather.gov     
National Weather Service

Regional Weather Roundup
NWS Homepage
This page is being discontinued on March 12, 2014.
The same data is available at this site. Please update your bookmarks.
Thank you, and we apologize for the inconvenience.
Please send an email to SR-SRH.Webmaster@noaa.gov with any concerns.


Current Version
Previous Version:    01  02  03  04  05  06  07  08  09  10  11  12  13  14  15  16  17  18  19  20  21  22  23  24  25  26  
[Printable]
104
ASUS45 KGGW 271415
RWRGGW
HOURLY WEATHER ROUNDUP FOR NORTHEAST MONTANA
NATIONAL WEATHER SERVICE GLASGOW MONTANA
800 AM MDT WED AUG 27 2014

NOTE: "FAIR" INDICATES FEW OR NO CLOUDS BELOW 12,000 FEET WITH NO
SIGNIFICANT WEATHER AND/OR OBSTRUCTIONS TO VISISBILITY.

NORTHEAST MONTANA


CITY           SKY/WX    TMP DP  RH WIND       PRES   REMARKS
GLASGOW        SUNNY     58  52  80 SE14      30.04S
PLENTYWOOD       N/A     55  51  86 SE3         N/A
WOLF POINT     SUNNY     54  50  86 E8        30.07F
JORDAN           N/A     56  52  86 CALM      30.06S
WINNETT          N/A     58  50  75 SW3         N/A
SIDNEY         SUNNY     54  52  94 S3        30.12S
GLENDIVE       SUNNY     55  54  94 SE3       30.13R
MALTA            N/A     55  51  86 NE3         N/A
SCOBEY           N/A     53  46  77 SE5       30.05S

FORT PECK REPORTS


CITY           SKY/WX    TMP DP  RH WIND       PRES   REMARKS
FORT PECK        N/A     63  54  72 E8          N/A
THE PINES        N/A     64  52  64 S3          N/A

SOUTHEAST MONTANA


CITY           SKY/WX    TMP DP  RH WIND       PRES   REMARKS
BILLINGS       SUNNY     56  49  77 SW8       30.12R
MILES CITY     SUNNY     59  54  83 E3        30.09S
BAKER          SUNNY     57  54  89 SE9       30.15R
LIVINGSTON     SUNNY     53  44  71 NW7       30.18S

CENTRAL MONTANA


CITY           SKY/WX    TMP DP  RH WIND       PRES   REMARKS
HAVRE          SUNNY     56  50  80 SW5       30.01S
LEWISTOWN      SUNNY     58  48  69 SE6       30.12R
GREAT FALLS    SUNNY     59  46  62 SW7       30.08R
CUT BANK       SUNNY     59  48  67 W3        30.05R
HELENA         SUNNY     54  45  71 CALM      30.17R
BUTTE          SUNNY     42  40  92 SE5       30.26R
BOZEMAN        SUNNY     51  46  83 SE3       30.20S

WESTERN MONTANA


CITY           SKY/WX    TMP DP  RH WIND       PRES   REMARKS
MISSOULA       SUNNY     51  45  79 CALM      30.19R
KALISPELL      NOT AVBL

NORTH DAKOTA


CITY           SKY/WX    TMP DP  RH WIND       PRES   REMARKS
WILLISTON      SUNNY     57  53  86 S7        30.11S
DICKINSON      SUNNY     54  52  93 SE5       30.14R
MINOT          SUNNY     59  52  77 S9        30.13S
BISMARCK       FOG       53  52  96 E3        30.18R VSB 1/4

SOUTHERN SASKATCHEWAN


CITY           SKY/WX    TMP DP  RH WIND       PRES   REMARKS
REGINA         SUNNY     55  50  82 SE9       30.03S
MOOSE JAW      SUNNY     63  52  67 S8        30.00S
ESTEVAN        MOSUNNY   59  57  94 SW8       30.10S
SWIFT CURRENT  SUNNY     63  48  59 S15G23    29.96S





U.S. Dept. of Commerce
NOAA National Weather Service
1325 East West Highway
Silver Spring, MD 20910
E-mail: w-nws.webmaster@noaa.gov
Page last modified: May 16, 2007
NATIONAL WEATHER SERVICE: for Safety, for Work, for Fun - FOR LIFE